,,Stat5,,Stat1,,Stat2,,Stat3,,Stat4,,Wind1,,Wind1,
time,status,PA1M_AVG,status,PR1M_SUM,status,RH1M_AVG,status,SR1M_AVG,status,TA1M_AVG,status,W1dAve1m,status,W1sAve1m,
2000-06-12, 00:00:00,VALID,919.571,VALID,0,VALID,94.9405,VALID,0,VALID,19.3376,VALID,188,VALID,0.978711,
2000-06-12, 00:01:00,VALID,919.568,VALID,0,VALID,94.7981,VALID,0,VALID,19.3662,VALID,186,VALID,0.746916,
2000-06-12, 00:02:00,VALID,919.552,VALID,0,VALID,94.8147,VALID,-0.0169808,VALID,19.3598,VALID,193,VALID,1.05674,
2000-06-12, 00:03:00,VALID,919.562,VALID,0,VALID,94.7244,VALID,0.0169808,VALID,19.3667,VALID,200,VALID,1.10699,
2000-06-12, 00:04:00,VALID,919.569,VALID,0,VALID,94.6748,VALID,0,VALID,19.3859,VALID,214,VALID,0.687289,
2000-06-12, 00:05:00,VALID,919.568,VALID,0,VALID,94.6176,VALID,-0.0169808,VALID,19.3829,VALID,208,VALID,0.968277,
2000-06-12, 00:06:00,VALID,919.585,VALID,0,VALID,94.6201,VALID,-0.0339617,VALID,19.3762,VALID,210,VALID,0.795072,
2000-06-12, 00:07:00,VALID,919.583,VALID,0,VALID,94.615,VALID,0,VALID,19.3699,VALID,206,VALID,0.765402,
2000-06-12, 00:08:00,VALID,919.581,VALID,0,VALID,94.6862,VALID,0,VALID,19.3565,VALID,203,VALID,1.02522,
2000-06-12, 00:09:00,VALID,919.58,VALID,0,VALID,94.6646,VALID,-0.0339617,VALID,19.3506,VALID,188,VALID,0.740954,
2000-06-12, 00:10:00,VALID,919.573,VALID,0,VALID,94.7244,VALID,0,VALID,19.3215,VALID,209,VALID,0.816106,
2000-06-12, 00:11:00,VALID,919.541,VALID,0,VALID,94.8922,VALID,-0.0169808,VALID,19.3051,VALID,204,VALID,0.765625,
2000-06-12, 00:12:00,VALID,919.538,VALID,0,VALID,94.8274,VALID,0.0169808,VALID,19.3021,VALID,200,VALID,0.796875,
2000-06-12, 00:13:00,VALID,919.518,VALID,0,VALID,94.793,VALID,0,VALID,19.282,VALID,205,VALID,0.917146,
2000-06-12, 00:14:00,VALID,919.508,VALID,0,VALID,94.7473,VALID,0,VALID,19.2892,VALID,207,VALID,0.875801,
2000-06-12, 00:15:00,VALID,919.482,VALID,0,VALID,94.7218,VALID,0,VALID,19.3053,VALID,207,VALID,1.01665,
2000-06-12, 00:16:00,VALID,919.481,VALID,0,VALID,94.7269,VALID,0,VALID,19.2952,VALID,213,VALID,1.14063,
2000-06-12, 00:17:00,VALID,919.458,VALID,0,VALID,94.6951,VALID,0,VALID,19.2855,VALID,208,VALID,1.20703,
2000-06-12, 00:18:00,VALID,919.432,VALID,0,VALID,94.793,VALID,-0.0169808,VALID,19.273,VALID,210,VALID,1.24877,
2000-06-12, 00:19:00,VALID,919.429,VALID,0,VALID,94.91,VALID,0,VALID,19.2499,VALID,211,VALID,1.02015,
2000-06-12, 00:20:00,VALID,919.414,VALID,0,VALID,95.0181,VALID,-0.0169808,VALID,19.234,VALID,207,VALID,1.15605,
2000-06-12, 00:21:00,VALID,919.409,VALID,0,VALID,94.9978,VALID,0.0169808,VALID,19.2273,VALID,209,VALID,0.928043,
2000-06-12, 00:22:00,VALID,919.402,VALID,0,VALID,94.9723,VALID,0,VALID,19.244,VALID,203,VALID,0.972957,
2000-06-12, 00:23:00,VALID,919.387,VALID,0,VALID,94.9711,VALID,0,VALID,19.2335,VALID,196,VALID,0.701275,
2000-06-12, 00:24:00,VALID,919.378,VALID,0,VALID,94.9583,VALID,-0.0169808,VALID,19.2437,VALID,201,VALID,1.20625,
2000-06-12, 00:25:00,VALID,919.354,VALID,0,VALID,94.8197,VALID,-0.0849042,VALID,19.2608,VALID,185,VALID,0.999589,
2000-06-12, 00:26:00,VALID,919.331,VALID,0,VALID,94.6404,VALID,-0.0679233,VALID,19.2671,VALID,188,VALID,0.905016,
2000-06-12, 00:27:00,VALID,919.304,VALID,0,VALID,94.5769,VALID,-0.0339617,VALID,19.2675,VALID,197,VALID,0.895765,
2000-06-12, 00:28:00,VALID,919.289,VALID,0,VALID,94.5807,VALID,-0.0849042,VALID,19.2444,VALID,206,VALID,0.669613,
2000-06-12, 00:29:00,VALID,919.264,VALID,0,VALID,94.5311,VALID,-0.0679233,VALID,19.2509,VALID,206,VALID,0.748355,
2000-06-12, 00:30:00,VALID,919.255,VALID,0,VALID,94.4955,VALID,-0.0849042,VALID,19.2611,VALID,215,VALID,1.127,
2000-06-12, 00:31:00,VALID,919.218,VALID,0,VALID,94.4217,VALID,-0.0849042,VALID,19.2807,VALID,220,VALID,0.707237,
2000-06-12, 00:32:00,VALID,919.225,VALID,0,VALID,94.4421,VALID,-0.0849042,VALID,19.2802,VALID,231,VALID,0.902734,
2000-06-12, 00:33:00,VALID,919.202,VALID,0,VALID,94.5349,VALID,-0.0679233,VALID,19.2897,VALID,232,VALID,1.01563,
2000-06-12, 00:34:00,VALID,919.179,VALID,0,VALID,94.7231,VALID,-0.0849042,VALID,19.2867,VALID,228,VALID,0.935444,
2000-06-12, 00:35:00,VALID,919.165,VALID,0,VALID,94.8757,VALID,-0.0509425,VALID,19.2608,VALID,223,VALID,1.38281,
2000-06-12, 00:36:00,VALID,919.134,VALID,0,VALID,94.9774,VALID,-0.0509425,VALID,19.2479,VALID,220,VALID,1.0873,
2000-06-12, 00:37:00,VALID,919.103,VALID,0,VALID,95.0435,VALID,-0.0339617,VALID,19.2221,VALID,205,VALID,0.66139,
2000-06-12, 00:38:00,VALID,919.087,VALID,0,VALID,95.1796,VALID,-0.0509425,VALID,19.1865,VALID,208,VALID,0.933494,
2000-06-12, 00:39:00,VALID,919.076,VALID,0,VALID,95.2267,VALID,-0.0509425,VALID,19.1766,VALID,207,VALID,1.25802,
2000-06-12, 00:40:00,VALID,919.063,VALID,0,VALID,95.1872,VALID,0.0339617,VALID,19.1851,VALID,204,VALID,1.14902,
2000-06-12, 00:41:00,VALID,919.058,VALID,0,VALID,95.0906,VALID,0.0509425,VALID,19.2015,VALID,206,VALID,1.13816,
2000-06-12, 00:42:00,VALID,919.029,VALID,0,VALID,94.9761,VALID,0.0169808,VALID,19.2109,VALID,211,VALID,1.11164,
2000-06-12, 00:43:00,VALID,919.023,VALID,0,VALID,94.7956,VALID,0.0509425,VALID,19.2338,VALID,209,VALID,1.49465,
2000-06-12, 00:44:00,VALID,919.013,VALID,0,VALID,94.6506,VALID,0.0339617,VALID,19.2502,VALID,217,VALID,1.20391,
2000-06-12, 00:45:00,VALID,918.994,VALID,0,VALID,94.526,VALID,0,VALID,19.2527,VALID,211,VALID,1.11349,
2000-06-12, 00:46:00,VALID,918.973,VALID,0,VALID,94.4522,VALID,0.0339617,VALID,19.2654,VALID,214,VALID,1.06851,
2000-06-12, 00:47:00,VALID,918.965,VALID,0,VALID,94.348,VALID,0.0169808,VALID,19.2822,VALID,217,VALID,1.24157,
2000-06-12, 00:48:00,VALID,918.944,VALID,0,VALID,94.2119,VALID,0.0169808,VALID,19.3108,VALID,206,VALID,0.963281,
2000-06-12, 00:49:00,VALID,918.915,VALID,0,VALID,94.1064,VALID,0.0509425,VALID,19.3332,VALID,189,VALID,0.0705181,
2000-06-12, 00:50:00,VALID,918.873,VALID,0,VALID,94.0975,VALID,0.0679233,VALID,19.3466,VALID,191,VALID,0.000411184,
2000-06-12, 00:51:00,VALID,918.847,VALID,0,VALID,94.0352,VALID,0,VALID,19.3565,VALID,198,VALID,0.452097,
2000-06-12, 00:52:00,VALID,918.817,VALID,0,VALID,94.058,VALID,0.0509425,VALID,19.3399,VALID,201,VALID,0.978711,
2000-06-12, 00:53:00,VALID,918.795,VALID,0,VALID,94.0237,VALID,0.0509425,VALID,19.3369,VALID,194,VALID,1.18318,
2000-06-12, 00:54:00,VALID,918.776,VALID,0,VALID,93.9601,VALID,0.0509425,VALID,19.3401,VALID,171,VALID,0.998598,
2000-06-12, 00:55:00,VALID,918.771,VALID,0,VALID,93.908,VALID,-0.0679233,VALID,19.3448,VALID,170,VALID,0.923109,
2000-06-12, 00:56:00,VALID,918.767,VALID,0,VALID,93.955,VALID,-0.0509425,VALID,19.3481,VALID,165,VALID,0.986523,
2000-06-12, 00:57:00,VALID,918.79,VALID,0,VALID,94.1242,VALID,-0.0849042,VALID,19.3021,VALID,177,VALID,1.02919,
2000-06-12, 00:58:00,VALID,918.801,VALID,0,VALID,94.1547,VALID,-0.0679233,VALID,19.3031,VALID,169,VALID,0.939762,
2000-06-12, 00:59:00,VALID,918.785,VALID,0,VALID,94.1305,VALID,-0.0679233,VALID,19.2827,VALID,141,VALID,0.776727,
2000-06-12, 01:00:00,VALID,918.759,VALID,0,VALID,94.1776,VALID,-0.0169808,VALID,19.2869,VALID,136,VALID,0.567578,
2000-06-12, 01:01:00,VALID,918.737,VALID,0,VALID,94.1814,VALID,-0.0509425,VALID,19.2869,VALID,181,VALID,0.555715,
2000-06-12, 01:02:00,VALID,918.709,VALID,0,VALID,94.2602,VALID,-0.0509425,VALID,19.2708,VALID,201,VALID,0.72516,
2000-06-12, 01:03:00,VALID,918.695,VALID,0,VALID,94.2882,VALID,-0.0679233,VALID,19.2643,VALID,223,VALID,0.793174,
2000-06-12, 01:04:00,VALID,918.675,VALID,0,VALID,94.1916,VALID,-0.0509425,VALID,19.274,VALID,218,VALID,1.06582,
2000-06-12, 01:05:00,VALID,918.644,VALID,0,VALID,94.1394,VALID,-0.0509425,VALID,19.2767,VALID,235,VALID,0.933183,
2000-06-12, 01:06:00,VALID,918.638,VALID,0,VALID,94.2068,VALID,-0.0849042,VALID,19.2735,VALID,215,VALID,0.945107,
2000-06-12, 01:07:00,VALID,918.626,VALID,0,VALID,94.3378,VALID,-0.0679233,VALID,19.2705,VALID,221,VALID,1.05592,
2000-06-12, 01:08:00,VALID,918.624,VALID,0,VALID,94.4573,VALID,-0.101885,VALID,19.2479,VALID,216,VALID,0.924219,
2000-06-12, 01:09:00,VALID,918.607,VALID,0,VALID,94.6303,VALID,-0.0509425,VALID,19.2255,VALID,215,VALID,1.01151,
2000-06-12, 01:10:00,VALID,918.575,VALID,0,VALID,94.8464,VALID,-0.101885,VALID,19.1895,VALID,214,VALID,1.03546,
2000-06-12, 01:11:00,VALID,918.553,VALID,0,VALID,95.0117,VALID,-0.0509425,VALID,19.1672,VALID,223,VALID,1.22924,
2000-06-12, 01:12:00,VALID,918.52,VALID,0,VALID,95.0601,VALID,-0.0339617,VALID,19.154,VALID,218,VALID,0.619336,
2000-06-12, 01:13:00,VALID,918.488,VALID,0,VALID,95.1236,VALID,-0.0849042,VALID,19.1644,VALID,208,VALID,0.910156,
2000-06-12, 01:14:00,VALID,918.473,VALID,0,VALID,95.1732,VALID,-0.0849042,VALID,19.1547,VALID,206,VALID,0.568873,
2000-06-12, 01:15:00,VALID,918.457,VALID,0,VALID,95.2088,VALID,-0.0679233,VALID,19.1279,VALID,225,VALID,0.719778,
2000-06-12, 01:16:00,VALID,918.454,VALID,0,VALID,95.2127,VALID,-0.0679233,VALID,19.1351,VALID,231,VALID,0.631445,
2000-06-12, 01:17:00,VALID,918.435,VALID,0,VALID,95.1847,VALID,-0.0509425,VALID,19.1314,VALID,233,VALID,0.64412,
2000-06-12, 01:18:00,VALID,918.443,VALID,0,VALID,95.1262,VALID,-0.0509425,VALID,19.1348,VALID,235,VALID,0.926082,
2000-06-12, 01:19:00,VALID,918.439,VALID,0,VALID,95.0092,VALID,-0.0849042,VALID,19.151,VALID,226,VALID,0.870066,
2000-06-12, 01:20:00,VALID,918.45,VALID,0,VALID,94.8096,VALID,-0.0679233,VALID,19.1537,VALID,221,VALID,0.991406,
2000-06-12, 01:21:00,VALID,918.446,VALID,0,VALID,94.6061,VALID,-0.0169808,VALID,19.196,VALID,227,VALID,0.596423,
2000-06-12, 01:22:00,VALID,918.448,VALID,0,VALID,94.4497,VALID,-0.0339617,VALID,19.2415,VALID,218,VALID,0.903783,
2000-06-12, 01:23:00,VALID,918.446,VALID,0,VALID,94.3823,VALID,-0.0509425,VALID,19.2638,VALID,204,VALID,0.837377,
2000-06-12, 01:24:00,VALID,918.438,VALID,0,VALID,94.3747,VALID,-0.0679233,VALID,19.27,VALID,212,VALID,0.598633,
2000-06-12, 01:25:00,VALID,918.434,VALID,0,VALID,94.2831,VALID,-0.0509425,VALID,19.2825,VALID,192,VALID,0.916735,
2000-06-12, 01:26:00,VALID,918.423,VALID,0,VALID,94.2081,VALID,-0.0339617,VALID,19.3053,VALID,177,VALID,0.88722,
2000-06-12, 01:27:00,VALID,918.41,VALID,0,VALID,94.2056,VALID,-0.0169808,VALID,19.3081,VALID,182,VALID,0.760691,
2000-06-12, 01:28:00,VALID,918.384,VALID,0,VALID,94.1038,VALID,-0.0509425,VALID,19.3215,VALID,188,VALID,1.15137,
2000-06-12, 01:29:00,VALID,918.358,VALID,0,VALID,93.9945,VALID,-0.0339617,VALID,19.3275,VALID,188,VALID,1.24157,
2000-06-12, 01:30:00,VALID,918.33,VALID,0,VALID,93.8673,VALID,-0.0339617,VALID,19.3637,VALID,192,VALID,0.719367,
2000-06-12, 01:31:00,VALID,918.308,VALID,0,VALID,93.8368,VALID,-0.0679233,VALID,19.3628,VALID,193,VALID,0.745066,
2000-06-12, 01:32:00,VALID,918.288,VALID,0,VALID,93.8724,VALID,-0.0339617,VALID,19.3791,VALID,217,VALID,0.385156,
2000-06-12, 01:33:00,VALID,918.261,VALID,0,VALID,93.8813,VALID,-0.0679233,VALID,19.3861,VALID,205,VALID,0.414679,
2000-06-12, 01:34:00,VALID,918.24,VALID,0,VALID,93.8355,VALID,0,VALID,19.3794,VALID,184,VALID,0.807893,
2000-06-12, 01:35:00,VALID,918.227,VALID,0,VALID,93.8788,VALID,-0.0509425,VALID,19.3732,VALID,194,VALID,0.96875,
2000-06-12, 01:36:00,VALID,918.201,VALID,0,VALID,93.9576,VALID,-0.0509425,VALID,19.3635,VALID,186,VALID,0.888477,
2000-06-12, 01:37:00,VALID,918.19,VALID,0,VALID,94.0644,VALID,-0.0509425,VALID,19.3468,VALID,173,VALID,0.794408,
2000-06-12, 01:38:00,VALID,918.169,VALID,0,VALID,94.1699,VALID,-0.0679233,VALID,19.3277,VALID,182,VALID,0.700452,
2000-06-12, 01:39:00,VALID,918.162,VALID,0,VALID,94.3098,VALID,-0.0679233,VALID,19.315,VALID,177,VALID,0.934622,
2000-06-12, 01:40:00,VALID,918.139,VALID,0,VALID,94.348,VALID,0.0169808,VALID,19.2944,VALID,189,VALID,1.09238,
2000-06-12, 01:41:00,VALID,918.128,VALID,0,VALID,94.3581,VALID,0.0339617,VALID,19.3009,VALID,188,VALID,0.83162,
2000-06-12, 01:42:00,VALID,918.109,VALID,0,VALID,94.4001,VALID,0.0849042,VALID,19.2872,VALID,188,VALID,0.808894,
2000-06-12, 01:43:00,VALID,918.099,VALID,0,VALID,94.4192,VALID,0.0679233,VALID,19.2877,VALID,179,VALID,0.835732,
2000-06-12, 01:44:00,VALID,918.077,VALID,0,VALID,94.498,VALID,0.0679233,VALID,19.2843,VALID,190,VALID,0.650195,
2000-06-12, 01:45:00,VALID,918.049,VALID,0,VALID,94.5781,VALID,0.0339617,VALID,19.2718,VALID,185,VALID,0.853002,
2000-06-12, 01:46:00,VALID,918.032,VALID,0,VALID,94.6468,VALID,0.0339617,VALID,19.2552,VALID,175,VALID,1.08368,
2000-06-12, 01:47:00,VALID,918.023,VALID,0,VALID,94.6722,VALID,0.0679233,VALID,19.2356,VALID,190,VALID,1.27447,
2000-06-12, 01:48:00,VALID,918.02,VALID,0,VALID,94.6938,VALID,0.0509425,VALID,19.2353,VALID,181,VALID,1.22676,
2000-06-12, 01:49:00,VALID,918.02,VALID,0,VALID,94.7244,VALID,0.0679233,VALID,19.2289,VALID,170,VALID,0.948808,
2000-06-12, 01:50:00,VALID,918.015,VALID,0,VALID,94.877,VALID,0.0509425,VALID,19.2293,VALID,157,VALID,0.665264,
2000-06-12, 01:51:00,VALID,918.014,VALID,0,VALID,94.9444,VALID,0.0679233,VALID,19.203,VALID,159,VALID,0.646382,
2000-06-12, 01:52:00,VALID,918.021,VALID,0,VALID,95.0168,VALID,0.0509425,VALID,19.1963,VALID,157,VALID,0.34668,
2000-06-12, 01:53:00,VALID,918.017,VALID,0,VALID,95.1491,VALID,0.101885,VALID,19.1841,VALID,149,VALID,0.387747,
2000-06-12, 01:54:00,VALID,918.002,VALID,0,VALID,95.392,VALID,0.0339617,VALID,19.1779,VALID,146,VALID,0.0733964,
2000-06-12, 01:55:00,VALID,917.984,VALID,0,VALID,95.5509,VALID,-0.0509425,VALID,19.1895,VALID,146,VALID,0,
2000-06-12, 01:56:00,VALID,917.956,VALID,0,VALID,95.6781,VALID,-0.0679233,VALID,19.1992,VALID,145,VALID,0,
2000-06-12, 01:57:00,VALID,917.932,VALID,0,VALID,95.6565,VALID,-0.0509425,VALID,19.1925,VALID,145,VALID,0,
2000-06-12, 01:58:00,VALID,917.923,VALID,0,VALID,95.514,VALID,-0.0849042,VALID,19.1791,VALID,145,VALID,0,
2000-06-12, 01:59:00,VALID,917.905,VALID,0,VALID,95.7099,VALID,-0.0509425,VALID,19.2017,VALID,145,VALID,0,
2000-06-12, 02:00:00,VALID,917.896,VALID,0,VALID,95.6933,VALID,-0.0679233,VALID,19.2047,VALID,145,VALID,0,
2000-06-12, 02:01:00,VALID,917.883,VALID,0,VALID,95.4263,VALID,-0.0339617,VALID,19.2154,VALID,145,VALID,0,
2000-06-12, 02:02:00,VALID,917.877,VALID,0,VALID,95.4098,VALID,-0.0509425,VALID,19.2084,VALID,161,VALID,0,
2000-06-12, 02:03:00,VALID,917.874,VALID,0,VALID,95.6526,VALID,-0.0339617,VALID,19.2179,VALID,174,VALID,0,
2000-06-12, 02:04:00,VALID,917.861,VALID,0,VALID,95.7264,VALID,-0.0849042,VALID,19.2184,VALID,183,VALID,0,
2000-06-12, 02:05:00,VALID,917.84,VALID,0,VALID,95.9883,VALID,-0.0849042,VALID,19.2176,VALID,187,VALID,0,
2000-06-12, 02:06:00,VALID,917.826,VALID,0,VALID,96.0367,VALID,-0.101885,VALID,19.2119,VALID,187,VALID,0,
2000-06-12, 02:07:00,VALID,917.802,VALID,0,VALID,95.9515,VALID,-0.0509425,VALID,19.192,VALID,187,VALID,0,
2000-06-12, 02:08:00,VALID,917.788,VALID,0,VALID,96.0176,VALID,-0.101885,VALID,19.2052,VALID,187,VALID,0,
2000-06-12, 02:09:00,VALID,917.776,VALID,0,VALID,96.0761,VALID,-0.0339617,VALID,19.1816,VALID,187,VALID,0,
2000-06-12, 02:10:00,VALID,917.792,VALID,0,VALID,96.1791,VALID,0.0169808,VALID,19.1809,VALID,187,VALID,0,
2000-06-12, 02:11:00,VALID,917.792,VALID,0,VALID,96.2554,VALID,0.0169808,VALID,19.1687,VALID,187,VALID,0,
2000-06-12, 02:12:00,VALID,917.818,VALID,0,VALID,96.1727,VALID,0.0339617,VALID,19.1488,VALID,190,VALID,0,
2000-06-12, 02:13:00,VALID,917.819,VALID,0,VALID,96.2414,VALID,0.0169808,VALID,19.1198,VALID,212,VALID,0,
2000-06-12, 02:14:00,VALID,917.824,VALID,0,VALID,96.1333,VALID,0.0339617,VALID,19.0937,VALID,194,VALID,0,
2000-06-12, 02:15:00,VALID,917.828,VALID,0,VALID,96.0519,VALID,0.0169808,VALID,19.0413,VALID,173,VALID,0,
2000-06-12, 02:16:00,VALID,917.816,VALID,0,VALID,96.1384,VALID,0.0509425,VALID,19.0164,VALID,170,VALID,0.379687,
2000-06-12, 02:17:00,VALID,917.803,VALID,0,VALID,96.1384,VALID,0.0169808,VALID,19.0005,VALID,161,VALID,0.909334,
2000-06-12, 02:18:00,VALID,917.788,VALID,0,VALID,96.0799,VALID,0.0509425,VALID,18.9975,VALID,179,VALID,0.717311,
2000-06-12, 02:19:00,VALID,917.779,VALID,0,VALID,96.0596,VALID,0.0169808,VALID,18.9906,VALID,178,VALID,0.891653,
2000-06-12, 02:20:00,VALID,917.757,VALID,0,VALID,96.0557,VALID,0.0169808,VALID,18.9936,VALID,179,VALID,0.820117,
2000-06-12, 02:21:00,VALID,917.751,VALID,0,VALID,96.043,VALID,0.0169808,VALID,19.0139,VALID,179,VALID,1.08347,
2000-06-12, 02:22:00,VALID,917.758,VALID,0,VALID,96.0685,VALID,0.0339617,VALID,19.0104,VALID,192,VALID,0.848357,
2000-06-12, 02:23:00,VALID,917.756,VALID,0,VALID,96.043,VALID,0,VALID,19.0005,VALID,188,VALID,1.02919,
2000-06-12, 02:24:00,VALID,917.752,VALID,0,VALID,95.8879,VALID,0,VALID,19.0099,VALID,173,VALID,1.22383,
2000-06-12, 02:25:00,VALID,917.737,VALID,0,VALID,95.7582,VALID,0.0169808,VALID,19.0261,VALID,168,VALID,1.191,
2000-06-12, 02:26:00,VALID,917.728,VALID,0,VALID,95.6844,VALID,0.0509425,VALID,19.0619,VALID,173,VALID,0.653577,
2000-06-12, 02:27:00,VALID,917.705,VALID,0,VALID,95.6997,VALID,0.101885,VALID,19.0683,VALID,160,VALID,0.651316,
2000-06-12, 02:28:00,VALID,917.683,VALID,0,VALID,95.7213,VALID,0.0169808,VALID,19.0812,VALID,163,VALID,0.825781,
2000-06-12, 02:29:00,VALID,917.664,VALID,0,VALID,95.7544,VALID,0.0509425,VALID,19.0718,VALID,166,VALID,0.634868,
2000-06-12, 02:30:00,VALID,917.654,VALID,0,VALID,95.8205,VALID,0.0339617,VALID,19.0519,VALID,171,VALID,0.930889,
2000-06-12, 02:31:00,VALID,917.632,VALID,0,VALID,95.8981,VALID,0.0679233,VALID,19.0425,VALID,178,VALID,0.732936,
2000-06-12, 02:32:00,VALID,917.617,VALID,0,VALID,95.9553,VALID,0.0509425,VALID,19.033,VALID,177,VALID,0.851758,
2000-06-12, 02:33:00,VALID,917.605,VALID,0,VALID,95.9845,VALID,0.0339617,VALID,19.0169,VALID,182,VALID,0.978413,
2000-06-12, 02:34:00,VALID,917.59,VALID,0,VALID,96.0163,VALID,0.0679233,VALID,19.0137,VALID,172,VALID,0.911184,
2000-06-12, 02:35:00,VALID,917.564,VALID,0,VALID,95.9667,VALID,0.0849042,VALID,19.0169,VALID,185,VALID,1.06373,
2000-06-12, 02:36:00,VALID,917.553,VALID,0,VALID,95.8942,VALID,0.0679233,VALID,19.0102,VALID,188,VALID,1.00078,
2000-06-12, 02:37:00,VALID,917.532,VALID,0,VALID,95.5763,VALID,0.0509425,VALID,19.0298,VALID,192,VALID,0.970189,
2000-06-12, 02:38:00,VALID,917.518,VALID,0,VALID,95.4644,VALID,0.0509425,VALID,19.0753,VALID,195,VALID,0.660657,
2000-06-12, 02:39:00,VALID,917.507,VALID,0,VALID,95.3894,VALID,0.0169808,VALID,19.0847,VALID,198,VALID,0.639186,
2000-06-12, 02:40:00,VALID,917.498,VALID,0,VALID,95.3653,VALID,-0.0849042,VALID,19.1025,VALID,212,VALID,0.479492,
2000-06-12, 02:41:00,VALID,917.476,VALID,0,VALID,95.4873,VALID,-0.0339617,VALID,19.1122,VALID,214,VALID,0.19449,
2000-06-12, 02:42:00,VALID,917.46,VALID,0,VALID,95.4988,VALID,-0.0679233,VALID,19.1155,VALID,200,VALID,0.482936,
2000-06-12, 02:43:00,VALID,917.453,VALID,0,VALID,95.3271,VALID,-0.0849042,VALID,19.112,VALID,191,VALID,0.910567,
2000-06-12, 02:44:00,VALID,917.439,VALID,0,VALID,95.247,VALID,-0.0339617,VALID,19.1085,VALID,188,VALID,0.93125,
2000-06-12, 02:45:00,VALID,917.44,VALID,0,VALID,95.2317,VALID,-0.0679233,VALID,19.0988,VALID,199,VALID,0.997738,
2000-06-12, 02:46:00,VALID,917.432,VALID,0,VALID,95.2648,VALID,-0.0339617,VALID,19.1055,VALID,185,VALID,0.795873,
2000-06-12, 02:47:00,VALID,917.437,VALID,0,VALID,95.1618,VALID,-0.0509425,VALID,19.1088,VALID,185,VALID,1.08882,
2000-06-12, 02:48:00,VALID,917.441,VALID,0,VALID,95.0791,VALID,-0.0679233,VALID,19.1314,VALID,175,VALID,1.20449,
2000-06-12, 02:49:00,VALID,917.44,VALID,0,VALID,95.1224,VALID,-0.0849042,VALID,19.1348,VALID,170,VALID,0.857319,
2000-06-12, 02:50:00,VALID,917.433,VALID,0,VALID,95.1809,VALID,-0.0509425,VALID,19.112,VALID,191,VALID,0.879523,
2000-06-12, 02:51:00,VALID,917.426,VALID,0,VALID,95.2521,VALID,-0.0509425,VALID,19.1053,VALID,192,VALID,0.65111,
2000-06-12, 02:52:00,VALID,917.412,VALID,0,VALID,95.3004,VALID,-0.0509425,VALID,19.1018,VALID,201,VALID,1.08867,
2000-06-12, 02:53:00,VALID,917.409,VALID,0,VALID,95.3182,VALID,-0.0339617,VALID,19.1092,VALID,212,VALID,0.875781,
2000-06-12, 02:54:00,VALID,917.388,VALID,0,VALID,95.2813,VALID,-0.0679233,VALID,19.0956,VALID,198,VALID,1.08694,
2000-06-12, 02:55:00,VALID,917.383,VALID,0,VALID,95.2915,VALID,-0.0849042,VALID,19.1053,VALID,194,VALID,1.14659,
2000-06-12, 02:56:00,VALID,917.382,VALID,0,VALID,95.3627,VALID,-0.0339617,VALID,19.1055,VALID,197,VALID,1.26348,
2000-06-12, 02:57:00,VALID,917.374,VALID,0,VALID,95.5064,VALID,-0.0509425,VALID,19.0891,VALID,205,VALID,0.846628,
2000-06-12, 02:58:00,VALID,917.365,VALID,0,VALID,95.5789,VALID,-0.0509425,VALID,19.0871,VALID,191,VALID,1.18174,
2000-06-12, 02:59:00,VALID,917.341,VALID,0,VALID,95.734,VALID,-0.0679233,VALID,19.0705,VALID,192,VALID,1.06723,
2000-06-12, 03:00:00,VALID,917.336,VALID,0,VALID,95.8892,VALID,-0.0169808,VALID,19.0476,VALID,183,VALID,0.635156,
2000-06-12, 03:01:00,VALID,917.327,VALID,0,VALID,95.9311,VALID,-0.0169808,VALID,19.0345,VALID,176,VALID,1.04174,
2000-06-12, 03:02:00,VALID,917.316,VALID,0,VALID,95.968,VALID,-0.0509425,VALID,19.0151,VALID,183,VALID,1.1897,
2000-06-12, 03:03:00,VALID,917.316,VALID,0,VALID,96.0201,VALID,-0.0169808,VALID,19.0024,VALID,183,VALID,0.965461,
2000-06-12, 03:04:00,VALID,917.323,VALID,0,VALID,96.0189,VALID,-0.0679233,VALID,18.9959,VALID,185,VALID,1.15937,
2000-06-12, 03:05:00,VALID,917.323,VALID,0,VALID,95.9438,VALID,-0.0169808,VALID,18.9987,VALID,188,VALID,1.2317,
2000-06-12, 03:06:00,VALID,917.336,VALID,0,VALID,95.8853,VALID,-0.0509425,VALID,19.0215,VALID,183,VALID,1.05058,
2000-06-12, 03:07:00,VALID,917.343,VALID,0,VALID,95.9209,VALID,-0.0339617,VALID,19.0151,VALID,165,VALID,0.871094,
2000-06-12, 03:08:00,VALID,917.352,VALID,0,VALID,95.9756,VALID,-0.0509425,VALID,19.019,VALID,163,VALID,0.673828,
2000-06-12, 03:09:00,VALID,917.352,VALID,0,VALID,96.0138,VALID,-0.0509425,VALID,18.9962,VALID,181,VALID,0.7206,
2000-06-12, 03:10:00,VALID,917.37,VALID,0,VALID,96.1066,VALID,-0.0679233,VALID,18.9766,VALID,179,VALID,0.911859,
2000-06-12, 03:11:00,VALID,917.367,VALID,0,VALID,96.1575,VALID,-0.0169808,VALID,18.9599,VALID,195,VALID,0.858964,
2000-06-12, 03:12:00,VALID,917.365,VALID,0,VALID,96.1842,VALID,-0.0509425,VALID,18.9736,VALID,197,VALID,0.302734,
2000-06-12, 03:13:00,VALID,917.369,VALID,0,VALID,96.1676,VALID,-0.0849042,VALID,18.9699,VALID,211,VALID,0.0830592,
2000-06-12, 03:14:00,VALID,917.36,VALID,0,VALID,96.1689,VALID,-0.0679233,VALID,18.9731,VALID,187,VALID,0.60773,
2000-06-12, 03:15:00,VALID,917.362,VALID,0,VALID,96.1702,VALID,-0.0509425,VALID,18.9736,VALID,198,VALID,0.59889,
2000-06-12, 03:16:00,VALID,917.36,VALID,0,VALID,96.1626,VALID,-0.0679233,VALID,18.9766,VALID,205,VALID,0.475977,
2000-06-12, 03:17:00,VALID,917.363,VALID,0,VALID,96.1282,VALID,-0.0509425,VALID,18.9731,VALID,183,VALID,0.860814,
2000-06-12, 03:18:00,VALID,917.357,VALID,0,VALID,96.0659,VALID,-0.0339617,VALID,18.9796,VALID,178,VALID,0.659455,
2000-06-12, 03:19:00,VALID,917.341,VALID,0,VALID,95.9909,VALID,-0.0509425,VALID,18.9858,VALID,184,VALID,0.718133,
2000-06-12, 03:20:00,VALID,917.339,VALID,0,VALID,95.9298,VALID,-0.0849042,VALID,18.9925,VALID,182,VALID,0.729102,
2000-06-12, 03:21:00,VALID,917.338,VALID,0,VALID,95.9082,VALID,-0.0679233,VALID,19.0052,VALID,189,VALID,0.730674,
2000-06-12, 03:22:00,VALID,917.313,VALID,0,VALID,95.9298,VALID,-0.0509425,VALID,18.9922,VALID,190,VALID,0.791324,
2000-06-12, 03:23:00,VALID,917.315,VALID,0,VALID,95.9604,VALID,-0.101885,VALID,18.9964,VALID,184,VALID,0.610403,
2000-06-12, 03:24:00,VALID,917.299,VALID,0,VALID,95.9845,VALID,-0.101885,VALID,18.99,VALID,164,VALID,0.946484,
2000-06-12, 03:25:00,VALID,917.267,VALID,0,VALID,95.912,VALID,-0.0679233,VALID,18.9892,VALID,158,VALID,0.953331,
2000-06-12, 03:26:00,VALID,917.273,VALID,0,VALID,95.7709,VALID,-0.0339617,VALID,19.0119,VALID,160,VALID,1.03946,
2000-06-12, 03:27:00,VALID,917.273,VALID,0,VALID,95.7022,VALID,-0.0169808,VALID,19.0151,VALID,169,VALID,1.07689,
2000-06-12, 03:28:00,VALID,917.282,VALID,0,VALID,95.528,VALID,-0.0509425,VALID,19.0183,VALID,171,VALID,1.13535,
2000-06-12, 03:29:00,VALID,917.286,VALID,0,VALID,95.2355,VALID,-0.0679233,VALID,19.028,VALID,173,VALID,1.11205,
2000-06-12, 03:30:00,VALID,917.298,VALID,0,VALID,94.9698,VALID,-0.0509425,VALID,19.0834,VALID,186,VALID,1.01275,